User: anonymous   Login
Location: Unspecified
(0.0000°N, 0.0000°E)
Time: 14:52:05
(UTC+00:00)
Language:

COSMOS 2483 - Orbit

View from above orbital plane
View from above orbital plane
View from above satellite
View from above satellite

Ground track
Ground track

The orbit data is extracted from the following two-line orbital elements,

1 39058U 13001B   18267.70962444 +.00000005 +00000-0 -36561-4 0  9991
2 39058 082.5031 173.8578 0017392 061.7110 298.5726 12.43950727258355
Epoch (UTC): 24 September 2018 17:01:51
Eccentricity: 0.0017392
inclination: 82.5031°
perigee height: 1476 km
apogee height: 1503 km
right ascension of ascending node: 173.8578°
argument of perigee: 61.7110°
revolutions per day: 12.43950727
mean anomaly at epoch: 298.5726°
orbit number at epoch: 25835

The dashed part of the orbit path shows where the satellite is in the earth's shadow,  

DLR